| time (UTC) | temp F | wind direction | speed MPH | gust MPH | rain 1hr in | rain 24hr in | rain mn in | humidity % | barometer mb |
| 20260502190123 | 87 | 355 | 4.0 | 10.0 | 0.00 | 0.00 | 0.00 | 20 | 1012.2 |
| 20260502185123 | 87 | 1 | 4.0 | 8.0 | 0.00 | 0.00 | 0.00 | 20 | 1012.5 |
| 20260502184123 | 86 | 356 | 4.0 | 10.0 | 0.00 | 0.00 | 0.00 | 22 | 1012.6 |
| 20260502183123 | 86 | 2 | 4.0 | 10.0 | 0.00 | 0.00 | 0.00 | 22 | 1012.6 |
| 20260502182123 | 86 | 358 | 5.0 | 10.0 | 0.00 | 0.00 | 0.00 | 23 | 1012.9 |
| 20260502181122 | 86 | 13 | 6.0 | 12.0 | 0.00 | 0.00 | 0.00 | 23 | 1013.0 |
| 20260502180144 | 87 | 17 | 5.0 | 11.0 | 0.00 | 0.00 | 0.00 | 23 | 1013.1 |
| 20260502170123 | 85 | 5 | 6.0 | 11.0 | 0.00 | 0.00 | 0.00 | 25 | 1013.4 |
| 20260502164123 | 84 | 1 | 6.0 | 11.0 | 0.00 | 0.00 | 0.00 | 26 | 1013.4 |
| 20260502163123 | 83 | 8 | 9.0 | 18.0 | 0.00 | 0.00 | 0.00 | 26 | 1013.3 |
| 20260502162123 | 83 | 8 | 7.0 | 14.0 | 0.00 | 0.00 | 0.00 | 26 | 1013.4 |
| 20260502161124 | 82 | 50 | 3.0 | 14.0 | 0.00 | 0.00 | 0.00 | 26 | 1013.3 |
| 20260502152121 | 81 | 10 | 3.0 | 8.0 | 0.00 | 0.00 | 0.00 | 30 | 1013.0 |
| 20260502151122 | 80 | 9 | 5.0 | 9.0 | 0.00 | 0.00 | 0.00 | 30 | 1013.0 |
| 20260502150122 | 79 | 0 | 9.0 | 14.0 | 0.00 | 0.00 | 0.00 | 31 | 1012.8 |
| 20260502140121 | 76 | 0 | 7.0 | 14.0 | 0.00 | 0.00 | 0.00 | 35 | 1012.3 |
| 20260502130122 | 73 | 1 | 8.0 | 13.0 | 0.00 | 0.00 | 0.00 | 34 | 1011.4 |
| 20260502123143 | 74 | 17 | 7.0 | 14.0 | 0.00 | 0.00 | 0.00 | 31 | 1011.0 |
| 20260502122122 | 74 | 6 | 8.0 | 15.0 | 0.00 | 0.00 | 0.00 | 29 | 1011.0 |
| 20260502121143 | 74 | 2 | 9.0 | 17.0 | 0.00 | 0.00 | 0.00 | 26 | 1010.8 |
| 20260502120122 | 74 | 0 | 10.0 | 17.0 | 0.00 | 0.00 | 0.00 | 23 | 1010.7 |
| 20260502115122 | 75 | 1 | 12.0 | 20.0 | 0.00 | 0.00 | 0.00 | 22 | 1010.7 |
| 20260502114123 | 75 | 1 | 13.0 | 22.0 | 0.00 | 0.00 | 0.00 | 22 | 1010.6 |
| 20260502113122 | 75 | 3 | 10.0 | 16.0 | 0.00 | 0.00 | 0.00 | 21 | 1010.5 |
| 20260502112122 | 76 | 1 | 14.0 | 21.0 | 0.00 | 0.00 | 0.00 | 21 | 1010.5 |
| 20260502111122 | 76 | 2 | 10.0 | 20.0 | 0.00 | 0.00 | 0.00 | 20 | 1010.5 |
| 20260502110122 | 76 | 2 | 12.0 | 20.0 | 0.00 | 0.00 | 0.00 | 20 | 1010.4 |
| 20260502105122 | 76 | 3 | 11.0 | 18.0 | 0.00 | 0.00 | 0.00 | 20 | 1010.6 |
| 20260502104143 | 76 | 2 | 9.0 | 16.0 | 0.00 | 0.00 | 0.00 | 20 | 1010.5 |
| 20260502103143 | 76 | 1 | 9.0 | 20.0 | 0.00 | 0.00 | 0.00 | 20 | 1010.4 |
| 20260502102123 | 76 | 1 | 8.0 | 15.0 | 0.00 | 0.00 | 0.00 | 20 | 1010.4 |
| 20260502101122 | 75 | 3 | 9.0 | 15.0 | 0.00 | 0.00 | 0.00 | 21 | 1010.4 |
| 20260502100122 | 76 | 2 | 9.0 | 13.0 | 0.00 | 0.00 | 0.00 | 20 | 1010.3 |
| 20260502091143 | 76 | 3 | 9.0 | 14.0 | 0.00 | 0.00 | 0.00 | 21 | 1010.5 |
| 20260502090122 | 76 | 0 | 9.0 | 14.0 | 0.00 | 0.00 | 0.00 | 21 | 1010.6 |
| 20260502071120 | 75 | 5 | 8.0 | 12.0 | 0.00 | 0.00 | 0.00 | 24 | 1010.6 |
| 20260502070121 | 73 | 6 | 7.0 | 11.0 | 0.00 | 0.00 | 0.00 | 25 | 1010.6 |
| 20260502065120 | 70 | 8 | 6.0 | 10.0 | 0.00 | 0.00 | 0.00 | 28 | 1010.5 |
| 20260502064120 | 68 | 7 | 5.0 | 8.0 | 0.00 | 0.00 | 0.00 | 28 | 1010.4 |
| 20260502063121 | 68 | 2 | 4.0 | 5.0 | 0.00 | 0.00 | 0.00 | 28 | 1010.4 |
| 20260502062121 | 68 | 360 | 3.0 | 4.0 | 0.00 | 0.00 | 0.00 | 29 | 1010.2 |
| 20260502061120 | 68 | 360 | 4.0 | 5.0 | 0.00 | 0.00 | 0.00 | 28 | 1010.1 |
| 20260502060121 | 69 | 43 | 3.0 | 4.0 | 0.00 | 0.00 | 0.00 | 27 | 1010.1 |
| 20260502055121 | 70 | 14 | 4.0 | 5.0 | 0.00 | 0.00 | 0.00 | 27 | 1010.0 |
| 20260502054122 | 70 | 1 | 3.0 | 5.0 | 0.00 | 0.00 | 0.00 | 27 | 1010.0 |
| 20260502053121 | 70 | 5 | 3.0 | 4.0 | 0.00 | 0.00 | 0.00 | 27 | 1009.9 |
| 20260502052120 | 70 | 11 | 4.0 | 4.0 | 0.00 | 0.00 | 0.00 | 27 | 1009.8 |
| 20260502051121 | 70 | 3 | 3.0 | 4.0 | 0.00 | 0.00 | 0.00 | 26 | 1009.8 |
| 20260502050121 | 71 | 10 | 3.0 | 4.0 | 0.00 | 0.00 | 0.00 | 26 | 1009.9 |
| 20260502045142 | 71 | 31 | 3.0 | 4.0 | 0.00 | 0.00 | 0.00 | 26 | 1009.8 |
| 20260502044121 | 72 | 16 | 3.0 | 3.0 | 0.00 | 0.00 | 0.00 | 26 | 1009.7 |
| 20260502043121 | 72 | 28 | 3.0 | 4.0 | 0.00 | 0.00 | 0.00 | 26 | 1009.6 |
| 20260502042142 | 71 | 13 | 4.0 | 5.0 | 0.00 | 0.00 | 0.00 | 26 | 1009.6 |
| 20260502041122 | 71 | 360 | 2.0 | 3.0 | 0.00 | 0.00 | 0.00 | 26 | 1009.3 |
| 20260502040121 | 72 | 360 | 2.0 | 3.0 | 0.00 | 0.00 | 0.00 | 25 | 1009.2 |
| 20260502035121 | 72 | 360 | 0.0 | 0.0 | 0.00 | 0.00 | 0.00 | 25 | 1009.1 |
| 20260502034121 | 73 | 360 | 0.0 | 0.0 | 0.00 | 0.00 | 0.00 | 25 | 1008.9 |
| 20260502033121 | 74 | 360 | 0.0 | 0.0 | 0.00 | 0.00 | 0.00 | 24 | 1008.7 |
| 20260502032121 | 75 | 360 | 0.0 | 1.0 | 0.00 | 0.00 | 0.00 | 24 | 1008.6 |
| 20260502031121 | 76 | 360 | 1.0 | 1.0 | 0.00 | 0.00 | 0.00 | 23 | 1008.5 |
| 20260502030121 | 77 | 360 | 2.0 | 2.0 | 0.00 | 0.00 | 0.00 | 22 | 1008.5 |
| 20260502025121 | 79 | 360 | 1.0 | 2.0 | 0.00 | 0.00 | 0.00 | 21 | 1008.4 |
| 20260502024142 | 81 | 360 | 1.0 | 2.0 | 0.00 | 0.00 | 0.00 | 20 | 1008.3 |
| 20260502023121 | 82 | 357 | 2.0 | 4.0 | 0.00 | 0.00 | 0.00 | 19 | 1008.2 |
| 20260502022121 | 82 | 358 | 3.0 | 5.0 | 0.00 | 0.00 | 0.00 | 19 | 1008.0 |
| 20260502021121 | 83 | 358 | 3.0 | 6.0 | 0.00 | 0.00 | 0.00 | 19 | 1007.9 |
| 20260502020121 | 84 | 359 | 4.0 | 7.0 | 0.00 | 0.00 | 0.00 | 19 | 1007.8 |
| 20260502015121 | 84 | 360 | 3.0 | 6.0 | 0.00 | 0.00 | 0.00 | 20 | 1007.9 |
| 20260502014121 | 84 | 359 | 5.0 | 9.0 | 0.00 | 0.00 | 0.00 | 19 | 1007.9 |
| 20260502013121 | 85 | 356 | 5.0 | 9.0 | 0.00 | 0.00 | 0.00 | 19 | 1007.9 |
| 20260502012142 | 85 | 348 | 3.0 | 6.0 | 0.00 | 0.00 | 0.00 | 19 | 1007.8 |
| 20260502011121 | 85 | 360 | 5.0 | 10.0 | 0.00 | 0.00 | 0.00 | 19 | 1007.9 |
| 20260502010121 | 85 | 358 | 6.0 | 12.0 | 0.00 | 0.00 | 0.00 | 18 | 1007.9 |
| 20260502005121 | 85 | 357 | 6.0 | 12.0 | 0.00 | 0.00 | 0.00 | 18 | 1007.9 |
| 20260502004121 | 86 | 355 | 6.0 | 11.0 | 0.00 | 0.00 | 0.00 | 18 | 1007.7 |
| 20260502003121 | 86 | 358 | 7.0 | 14.0 | 0.00 | 0.00 | 0.00 | 19 | 1007.7 |
| 20260502002121 | 86 | 359 | 6.0 | 12.0 | 0.00 | 0.00 | 0.00 | 19 | 1007.6 |
| 20260502001121 | 86 | 358 | 6.0 | 14.0 | 0.00 | 0.00 | 0.00 | 19 | 1007.6 |
| 20260502000121 | 86 | 357 | 5.0 | 10.0 | 0.00 | 0.00 | 0.00 | 19 | 1007.7 |
| 20260501235121 | 86 | 358 | 5.0 | 11.0 | 0.00 | 0.00 | 0.00 | 19 | 1007.9 |
| 20260501234121 | 86 | 357 | 4.0 | 9.0 | 0.00 | 0.00 | 0.00 | 19 | 1007.9 |
| 20260501233121 | 86 | 358 | 7.0 | 12.0 | 0.00 | 0.00 | 0.00 | 19 | 1007.9 |
| 20260501232121 | 86 | 360 | 5.0 | 10.0 | 0.00 | 0.00 | 0.00 | 20 | 1007.7 |
| 20260501231121 | 86 | 360 | 9.0 | 14.0 | 0.00 | 0.00 | 0.00 | 19 | 1007.7 |
| 20260501230121 | 86 | 359 | 9.0 | 13.0 | 0.00 | 0.00 | 0.00 | 19 | 1007.8 |
| 20260501225121 | 86 | 360 | 6.0 | 12.0 | 0.00 | 0.00 | 0.00 | 19 | 1008.0 |
| 20260501224121 | 86 | 357 | 6.0 | 11.0 | 0.00 | 0.00 | 0.00 | 20 | 1008.0 |
| 20260501223142 | 86 | 358 | 6.0 | 12.0 | 0.00 | 0.00 | 0.00 | 19 | 1008.1 |
| 20260501222121 | 86 | 359 | 8.0 | 14.0 | 0.00 | 0.00 | 0.00 | 20 | 1008.2 |
| 20260501221121 | 85 | 353 | 5.0 | 10.0 | 0.00 | 0.00 | 0.00 | 21 | 1008.3 |
| 20260501220122 | 85 | 358 | 4.0 | 8.0 | 0.00 | 0.00 | 0.00 | 20 | 1008.4 |
| 20260501215121 | 85 | 359 | 4.0 | 8.0 | 0.00 | 0.00 | 0.00 | 21 | 1008.6 |
| 20260501214121 | 84 | 360 | 9.0 | 14.0 | 0.00 | 0.00 | 0.00 | 23 | 1008.7 |
| 20260501213122 | 84 | 359 | 5.0 | 9.0 | 0.00 | 0.00 | 0.00 | 23 | 1008.8 |
| 20260501212121 | 84 | 358 | 6.0 | 13.0 | 0.00 | 0.00 | 0.00 | 22 | 1009.0 |
| 20260501211121 | 84 | 359 | 5.0 | 12.0 | 0.00 | 0.00 | 0.00 | 23 | 1009.1 |
| 20260501210121 | 84 | 358 | 4.0 | 12.0 | 0.00 | 0.00 | 0.00 | 23 | 1009.3 |
| 20260501205143 | 84 | 355 | 7.0 | 14.0 | 0.00 | 0.00 | 0.00 | 24 | 1009.3 |
| 20260501204121 | 82 | 346 | 3.0 | 5.0 | 0.00 | 0.00 | 0.00 | 24 | 1009.5 |
| 20260501203121 | 83 | 358 | 4.0 | 9.0 | 0.00 | 0.00 | 0.00 | 24 | 1009.8 |
| 20260501202121 | 84 | 358 | 6.0 | 12.0 | 0.00 | 0.00 | 0.00 | 23 | 1009.7 |
| 20260501201121 | 84 | 1 | 8.0 | 13.0 | 0.00 | 0.00 | 0.00 | 24 | 1009.8 |
| 20260501200122 | 84 | 355 | 5.0 | 9.0 | 0.00 | 0.00 | 0.00 | 24 | 1009.7 |
| 20260501195121 | 83 | 358 | 5.0 | 10.0 | 0.00 | 0.00 | 0.00 | 25 | 1009.9 |
| 20260501194121 | 83 | 358 | 4.0 | 11.0 | 0.00 | 0.00 | 0.00 | 24 | 1010.1 |
| 20260501193121 | 82 | 360 | 6.0 | 12.0 | 0.00 | 0.00 | 0.00 | 26 | 1010.2 |
| 20260501192142 | 81 | 360 | 2.0 | 5.0 | 0.00 | 0.00 | 0.00 | 26 | 1010.4 |
| 20260501191121 | 81 | 359 | 4.0 | 9.0 | 0.00 | 0.00 | 0.00 | 26 | 1010.5 |